Location: Helsinki
(60.1699°N, 24.9384°E)
Time: 23:40:00
(UTC+02:00)

Vanguard 2 Rocket - Pass Details

Date: 24 September 2023
Orbit: 553 x 3312 km, 32.9° (Epoch: 28 November)

Event Time Altitude Azimuth Distance (km) Brightness Sun altitude
Rises 14:28:02 0° 229° (SW) 7,140 12.4 27.6°
Reaches altitude 10° 14:34:06 10° 218° (SW) 6,246 12.7 27.3°
Maximum altitude 14:48:09 25° 174° (S) 4,912 11.9 26.6°
Drops below altitude 10° 15:00:24 10° 128° (SE) 5,414 11.0 25.8°
Sets 15:05:06 0° 116° (ESE) 6,046 11.1 25.5°
